Theta_e
318 318 317 317 314 311 310 312 312 310 310 310 312 315 314 313 313 313 312 312 313 313 313 315 318 321 321 323 325 327 328 328 328 328 329 329 327 325 325 326 326 325 327 326 323 321 319 319 319 320 323 324 325 328 325 327 328 327 335 338 338 340 338 338 337 334 334 335 331 324 324 324 325 327 323 324 332 338 334 335 339 335 334 332 330 329 326 326
317 317 317 317 316 313 310 311 311 311 311 310 311 313 313 313 314 314 313 312 312 312 312 313 317 320 321 322 324 326 328 328 328 328 328 328 326 325 325 326 326 326 327 327 324 320 320 320 319 321 327 326 326 326 327 328 325 330 338 337 338 340 337 335 337 335 328 329 329 324 325 323 324 328 324 325 333 337 336 335 339 341 337 333 329 327 325 326
317 317 317 316 317 315 311 311 311 311 311 311 310 311 313 314 314 314 314 313 312 313 312 313 315 318 321 322 323 325 328 328 329 329 327 327 326 325 325 325 326 326 327 328 324 320 320 320 318 324 329 327 329 330 331 330 326 332 335 334 339 339 336 334 334 334 329 327 329 326 325 324 325 327 324 328 335 336 337 334 337 341 342 341 330 323 324 326
318 317 317 317 317 316 313 311 311 311 311 311 310 311 313 314 315 315 315 314 313 313 313 313 314 317 320 322 323 325 326 328 330 328 327 327 327 326 324 325 325 326 327 328 325 321 321 319 318 324 328 328 329 330 334 333 329 331 330 333 339 335 333 334 332 334 331 324 325 326 323 323 326 326 325 330 334 335 335 331 333 337 342 343 330 322 324 325
318 318 317 317 317 317 315 312 311 311 311 311 311 311 313 314 315 315 315 314 313 314 313 313 313 316 320 321 324 325 323 328 330 326 326 326 326 326 325 324 325 326 326 327 327 322 320 319 319 325 328 329 330 329 336 336 330 331 330 332 336 332 332 334 334 333 329 321 320 323 321 321 323 323 327 331 330 331 331 330 330 331 338 341 331 324 323 323
318 317 317 317 317 317 316 314 311 310 310 310 311 311 312 314 315 314 314 314 314 314 313 313 313 315 319 321 323 323 323 328 326 322 326 326 325 326 326 325 325 326 326 328 327 322 320 321 321 326 328 329 330 330 337 334 327 331 333 333 333 331 331 332 331 327 322 319 320 323 320 321 324 324 328 330 327 327 328 328 329 329 332 333 328 324 324 325
318 317 316 316 317 317 317 316 312 310 308 309 311 311 312 314 314 314 314 314 314 314 314 313 313 315 318 321 322 323 324 326 323 322 324 325 326 326 325 325 325 327 327 327 326 322 323 324 323 327 329 329 331 330 333 333 326 330 334 335 334 331 329 329 328 325 320 318 320 321 317 319 326 326 326 328 327 327 326 325 326 327 327 327 327 325 325 324
318 317 316 316 316 317 316 316 313 310 308 308 310 310 312 314 314 314 314 314 314 314 314 313 313 314 318 321 322 324 326 325 323 324 323 323 325 326 327 327 327 328 328 327 325 322 323 325 324 325 328 328 330 329 330 332 329 330 333 336 335 331 331 329 329 330 326 322 319 318 318 321 324 322 323 327 330 327 328 332 332 329 329 329 329 328 324 324
318 317 316 316 316 317 316 316 314 311 308 309 310 310 311 313 314 314 314 314 314 314 314 313 313 314 318 320 322 324 325 324 323 324 324 324 324 326 328 328 329 328 327 328 326 322 321 325 324 324 328 327 328 329 330 331 330 330 331 335 334 331 333 331 329 332 331 327 322 320 324 324 320 318 320 323 327 326 330 344 343 335 336 333 330 328 325 325
317 318 316 316 315 316 316 315 314 311 309 309 309 310 310 313 315 315 314 314 314 314 313 313 313 314 318 320 321 323 323 322 323 323 324 324 324 326 328 328 329 328 327 326 324 321 320 323 322 322 327 327 327 328 330 330 330 332 328 330 331 329 333 331 331 330 326 326 324 323 329 325 317 316 322 322 324 325 331 346 342 339 342 334 329 328 325 324
316 317 316 316 316 315 316 315 314 311 309 309 309 310 310 312 315 315 315 314 313 313 312 313 312 314 318 319 322 323 321 321 323 324 324 324 324 325 327 327 328 328 326 324 323 321 319 320 320 321 323 326 328 327 330 329 328 331 328 328 330 329 331 330 331 329 322 325 323 321 325 321 314 316 321 321 324 325 333 348 343 341 342 332 330 328 324 324
316 317 317 316 316 315 316 316 314 311 310 309 310 311 310 312 315 315 315 314 313 312 312 312 312 314 318 320 321 321 320 322 323 324 324 324 324 324 325 326 327 327 326 324 323 322 320 319 319 324 325 327 329 328 330 330 328 332 330 330 333 332 330 329 330 327 325 326 320 318 323 321 316 317 319 321 326 323 329 347 344 339 338 333 331 329 327 325
315 316 317 316 316 315 315 315 314 312 311 309 311 311 311 313 315 315 315 314 313 312 311 312 313 315 319 319 319 319 320 321 323 323 324 324 324 324 324 325 326 326 327 325 324 323 321 319 320 324 326 329 332 328 329 331 329 331 332 331 332 333 332 331 330 326 325 324 318 321 331 331 323 317 318 321 327 326 328 341 342 337 334 332 331 330 330 326
315 316 317 316 315 315 315 315 313 312 310 309 311 312 312 313 314 315 315 315 313 312 312 313 314 316 318 318 317 318 319 320 321 322 323 324 324 325 325 326 327 326 326 326 325 324 321 319 320 322 324 328 330 328 333 339 334 330 332 332 331 333 334 332 329 326 327 322 316 324 331 333 329 322 320 319 323 327 328 333 337 336 333 332 331 330 331 328
314 315 316 316 315 314 315 315 313 312 310 309 311 312 313 313 314 315 315 315 313 312 313 314 315 317 318 318 316 316 318 318 320 320 321 323 324 324 325 326 326 326 326 325 324 323 321 319 320 325 327 325 326 331 337 340 336 334 334 333 333 333 333 334 329 326 330 323 314 322 329 328 328 326 325 322 320 322 323 325 329 333 333 332 331 330 331 330
314 315 315 315 315 314 315 315 313 312 310 309 311 312 313 313 314 315 315 315 314 314 315 315 315 315 316 317 316 315 318 318 319 319 319 321 322 323 323 324 324 323 323 322 322 321 320 320 321 326 329 326 328 335 337 335 335 336 333 332 335 334 332 335 331 323 329 326 315 318 327 330 331 329 327 323 319 318 319 320 321 327 330 330 331 330 331 331
313 314 315 315 315 314 315 315 313 311 310 310 311 312 313 314 314 315 315 315 315 316 315 314 313 312 314 315 315 316 317 318 319 318 318 318 320 322 322 321 320 320 320 320 320 319 319 321 322 324 328 330 332 334 334 334 334 335 333 332 334 335 333 333 332 324 324 328 323 319 320 326 332 330 326 322 318 317 317 318 318 319 323 326 328 329 330 331
314 314 315 315 315 314 314 315 313 312 311 311 312 313 314 315 315 314 313 312 313 313 312 311 312 313 313 314 314 316 317 318 319 318 319 319 319 321 321 320 319 319 321 320 320 320 320 322 323 325 328 329 331 330 331 331 329 331 333 334 334 335 334 333 334 329 322 325 328 324 319 320 323 324 324 324 321 318 318 317 316 316 317 321 325 328 329 329
313 314 314 315 315 314 314 314 312 311 311 312 313 313 314 313 313 312 310 310 312 312 312 311 312 313 314 315 314 315 317 317 319 319 320 321 320 321 321 320 319 319 322 323 322 322 322 323 323 326 328 327 328 329 329 329 327 328 330 331 333 333 334 336 337 330 323 324 327 325 323 321 320 320 320 322 321 320 320 318 316 316 315 315 319 323 327 328
313 313 313 315 315 314 314 314 312 310 311 313 313 312 312 311 311 310 309 310 312 312 314 312 312 313 314 316 315 315 318 318 320 321 321 321 320 320 320 319 320 321 323 324 324 322 322 325 326 325 327 325 326 327 327 331 331 330 329 329 332 334 333 334 337 332 324 326 328 326 326 324 321 322 320 319 321 320 320 319 318 317 315 314 314 316 320 324
312 313 314 315 314 314 315 313 311 310 311 313 312 311 312 311 311 312 310 312 311 311 314 313 312 312 312 314 314 316 319 319 319 321 321 321 320 321 321 320 322 324 323 324 325 324 323 326 326 324 325 324 324 326 327 329 330 330 332 332 333 333 332 331 335 336 326 325 330 327 326 326 323 324 322 321 322 320 319 319 320 319 316 315 314 313 314 316
312 313 314 315 314 314 314 312 310 310 311 312 311 310 311 310 311 311 311 312 312 310 313 313 313 313 311 313 315 316 319 319 320 321 320 320 320 321 322 321 323 324 323 324 325 325 326 327 326 324 324 323 324 324 325 327 328 328 330 332 333 332 332 332 332 333 326 325 332 331 327 327 324 323 322 321 322 321 319 318 318 320 319 317 315 314 314 313
311 313 314 314 314 314 314 311 310 311 311 311 310 310 309 310 310 309 311 312 312 311 311 312 314 314 313 314 314 315 318 319 320 321 320 320 320 321 322 323 323 323 323 324 325 327 328 326 324 323 324 324 324 324 324 326 326 327 328 329 331 331 333 334 332 331 327 326 330 331 328 327 325 324 322 321 320 320 320 319 318 319 320 320 318 317 316 315
310 313 314 314 313 314 314 311 310 311 311 310 310 309 309 309 309 309 311 312 312 312 311 311 312 312 314 314 313 315 317 317 318 321 320 319 320 320 321 323 323 323 323 323 324 326 328 326 323 324 325 324 324 324 324 325 325 326 327 327 329 333 333 333 333 328 325 325 324 325 330 329 327 327 325 323 323 321 320 320 318 317 318 319 319 319 319 318
310 313 314 314 313 314 313 311 311 312 311 310 310 309 309 309 309 309 311 312 312 311 310 311 311 312 313 312 312 314 316 317 318 320 319 318 320 321 321 322 323 324 323 322 323 324 326 325 324 325 326 325 325 325 324 325 326 325 326 326 327 332 332 332 331 325 327 331 326 326 335 333 329 332 329 326 327 325 322 320 320 319 317 317 317 317 318 318
311 312 313 313 313 313 312 311 311 311 312 310 309 310 309 310 309 308 311 312 311 310 310 312 312 313 312 311 312 313 315 316 315 316 318 319 319 320 321 322 322 323 323 321 323 323 323 324 324 324 325 325 326 326 324 324 326 326 325 325 326 329 330 331 330 328 332 335 329 327 334 334 333 336 333 329 329 327 324 322 320 320 319 318 317 316 317 317
310 311 312 313 313 312 311 312 311 311 312 311 310 310 310 310 309 307 310 311 310 310 311 312 311 312 312 311 311 312 315 316 314 313 316 318 318 317 319 323 322 322 322 322 323 324 322 322 325 325 325 326 327 326 325 324 326 327 326 326 327 327 329 329 329 330 331 331 329 324 327 332 331 330 333 334 332 330 327 324 321 320 320 320 319 317 317 317
310 312 313 313 312 311 311 311 311 311 311 310 310 310 310 309 308 308 310 310 310 310 311 312 310 311 312 311 311 313 314 314 316 315 311 312 315 315 316 321 323 322 322 322 325 326 323 322 324 324 325 327 326 325 325 324 325 328 329 328 327 327 329 329 330 331 328 328 330 324 323 330 328 326 333 336 333 330 328 326 323 320 320 320 320 319 318 317
310 312 313 313 312 310 309 310 310 310 310 309 310 310 309 308 307 309 310 309 310 310 310 312 310 310 311 311 312 314 313 314 316 314 310 311 312 313 316 317 319 322 322 322 325 326 324 322 322 323 325 326 324 324 326 325 326 328 329 330 328 328 330 332 332 332 328 328 330 327 327 330 327 326 332 333 329 326 325 326 324 321 320 320 320 320 319 317
311 312 313 312 311 310 309 309 309 310 309 309 310 308 307 307 307 310 311 309 310 310 310 311 310 311 312 313 313 313 313 314 313 311 312 313 311 312 315 315 314 318 320 321 323 324 324 322 320 322 323 324 324 325 326 326 326 327 328 330 331 329 328 330 331 331 331 331 330 328 327 329 328 325 325 328 326 324 324 326 325 322 320 320 320 320 320 318
311 312 312 311 310 309 309 309 309 310 309 310 309 306 306 307 308 309 310 309 310 311 311 311 311 312 313 314 315 313 312 312 312 312 314 315 312 312 315 315 315 316 317 318 320 322 323 323 323 322 321 321 324 326 326 326 326 328 329 331 331 329 328 329 329 329 332 333 331 328 326 327 329 326 322 325 324 324 325 325 327 325 321 320 320 320 320 319
312 313 311 310 309 308 308 309 309 309 309 309 306 305 307 310 309 309 309 308 310 312 312 311 312 313 313 314 314 313 312 312 312 314 314 315 314 313 315 317 318 318 319 319 320 322 322 322 324 324 321 321 324 325 326 325 325 328 330 331 331 330 331 332 331 331 332 332 329 327 326 327 327 325 324 327 325 326 327 326 327 326 323 321 320 320 321 320
313 312 311 309 308 307 308 309 309 308 309 307 306 306 308 310 310 309 308 309 311 311 311 311 312 313 313 313 314 313 313 313 313 314 314 314 315 315 315 316 317 318 320 319 321 323 323 323 324 324 323 322 323 325 327 325 325 328 328 330 331 331 333 335 334 332 332 331 329 327 328 328 328 324 324 325 323 325 327 327 328 327 324 323 321 321 322 321
312 311 311 309 308 308 308 308 308 308 307 307 307 308 309 310 310 308 308 309 310 310 311 312 312 313 313 313 314 313 313 313 313 314 314 314 315 315 316 315 315 317 319 319 320 322 324 325 324 324 324 323 322 324 325 325 326 327 327 328 329 330 331 332 332 332 333 331 327 327 330 330 328 326 326 325 324 324 324 325 329 329 326 324 324 323 324 323
312 311 310 308 307 307 308 308 308 308 307 307 308 309 309 309 309 308 308 309 310 311 312 312 312 314 314 313 313 313 313 313 312 313 314 314 314 315 315 315 314 315 317 319 319 320 323 325 325 324 323 323 323 323 322 324 327 326 326 328 329 328 326 329 332 331 331 331 327 327 331 331 327 324 325 326 325 324 323 323 326 328 325 324 323 322 322 322
310 310 308 307 306 306 308 308 307 307 307 308 309 309 309 309 309 309 308 309 311 312 312 312 312 314 314 313 313 313 311 311 312 313 313 314 314 314 314 315 315 314 316 318 319 319 322 325 324 323 324 323 322 323 322 323 327 327 327 329 329 327 325 329 332 329 328 333 331 328 330 330 326 324 324 323 323 324 325 323 322 323 323 323 322 321 320 321
309 308 307 306 306 306 308 308 307 307 308 309 309 309 309 309 310 310 309 310 312 311 312 314 313 313 314 313 313 313 311 311 312 313 312 313 314 313 313 314 314 314 315 316 317 317 319 323 323 322 325 324 321 323 323 322 326 328 328 328 326 325 325 326 329 329 329 331 331 329 330 328 327 328 327 325 323 323 326 328 325 322 322 323 321 321 320 320
308 308 307 306 306 306 308 308 307 307 308 310 309 310 310 309 308 309 310 311 311 310 312 314 313 313 314 314 314 312 312 312 312 312 312 312 313 313 312 313 313 313 314 315 316 316 316 320 322 322 324 324 322 325 324 324 325 324 324 326 326 327 328 326 327 331 331 330 330 330 329 327 327 327 327 327 327 324 323 327 328 323 321 320 319 320 320 319
308 308 307 306 306 306 308 308 307 307 308 309 309 310 311 309 307 309 310 310 310 310 312 312 312 312 312 312 313 312 311 312 312 313 312 312 312 312 311 312 313 313 313 314 315 315 316 318 319 320 322 323 323 324 325 326 324 320 320 325 326 326 328 328 327 328 331 332 330 330 330 329 326 323 323 325 326 327 324 323 324 323 321 319 318 319 320 319
307 307 307 306 306 306 307 306 307 308 309 309 309 309 309 309 307 308 310 311 310 309 311 312 311 312 313 312 312 312 311 311 312 312 312 311 311 311 310 311 312 313 312 313 315 315 315 316 317 319 321 323 324 324 325 326 326 323 322 325 326 326 326 328 328 326 329 330 329 331 331 327 326 323 322 322 323 325 327 324 322 321 320 319 319 319 320 320
307 306 305 305 305 305 305 306 307 309 309 309 309 307 307 307 307 308 308 310 309 307 308 312 311 310 312 312 312 312 311 311 312 311 311 310 311 312 311 310 312 312 312 313 314 315 316 316 316 317 319 321 322 320 321 322 323 324 323 325 328 327 326 328 329 328 328 328 329 331 329 330 337 333 323 322 323 323 327 327 324 323 321 320 320 319 319 320
307 306 304 304 306 306 306 307 307 308 308 308 308 308 307 307 307 308 307 307 309 308 307 310 311 311 311 311 312 311 311 311 311 311 311 310 310 311 311 310 311 311 311 313 314 314 316 317 316 315 316 318 318 318 318 318 317 318 319 321 325 326 326 327 328 328 328 328 328 330 329 330 338 338 327 324 324 322 324 325 324 323 321 320 320 319 319 319
305 304 303 304 306 307 308 308 306 307 307 307 307 307 307 307 307 308 308 307 308 307 308 311 310 309 311 311 311 311 310 312 311 311 311 310 309 311 312 312 312 311 311 313 313 313 314 316 316 315 315 316 316 317 317 315 314 315 317 317 320 324 326 325 326 327 329 328 327 330 331 327 332 342 332 323 324 323 322 324 323 323 321 320 320 321 322 321
302 302 302 303 305 307 309 308 307 307 305 305 306 306 306 307 307 308 308 307 306 306 309 312 309 308 310 310 310 310 310 311 312 311 312 311 309 310 313 313 312 312 312 312 313 312 313 315 315 315 315 314 313 314 315 315 315 315 317 316 316 320 324 324 326 327 327 328 328 330 330 326 334 344 328 318 322 323 320 320 321 321 322 320 321 324 326 326
302 302 301 300 301 305 307 305 307 308 306 305 307 305 305 306 306 307 307 307 307 307 308 308 307 308 309 309 310 310 309 310 311 311 312 312 309 309 311 312 312 312 312 312 313 312 313 315 314 314 314 313 311 312 314 316 317 317 317 316 314 316 320 323 326 327 326 327 327 328 329 325 329 334 324 317 320 318 317 318 317 318 319 317 317 320 324 329
305 303 302 301 300 302 304 304 305 307 306 306 306 305 307 306 304 305 306 305 306 306 305 304 305 308 310 309 310 310 309 309 310 310 311 311 311 310 310 311 312 312 313 314 314 313 314 316 314 313 313 312 311 314 317 319 322 320 319 319 317 317 319 322 326 327 326 327 326 326 327 326 325 326 325 322 320 317 318 318 316 317 317 316 316 317 322 328
306 304 303 303 302 303 304 304 305 306 306 307 307 306 306 306 304 304 304 304 305 306 305 304 305 309 309 309 310 310 309 309 309 309 310 310 310 309 308 310 311 311 312 314 314 313 313 315 314 313 313 312 312 315 316 319 323 322 321 321 321 320 320 321 324 325 325 327 328 325 325 327 325 323 324 324 321 319 319 319 318 318 317 316 316 317 321 325
304 303 303 303 304 305 305 304 304 305 306 306 306 306 306 306 305 305 304 303 303 305 308 307 306 308 309 309 310 310 309 309 308 308 309 310 309 308 308 309 310 309 311 313 312 311 312 314 314 314 314 313 313 314 315 317 319 319 319 319 319 320 319 318 318 319 320 323 325 324 324 325 324 322 322 322 322 321 320 321 320 317 315 315 316 319 321 322
300 301 301 301 303 305 305 304 304 305 305 306 306 305 306 306 306 306 305 304 303 304 307 309 307 307 308 309 309 309 309 310 309 308 308 309 309 309 309 310 309 307 310 313 311 310 312 314 314 314 314 314 313 314 314 315 315 315 316 316 316 317 317 316 316 316 316 317 319 319 320 321 321 321 321 321 323 322 319 318 317 314 314 316 317 320 321 319
302 303 301 301 302 303 304 304 304 304 305 306 306 305 305 305 305 305 304 305 306 305 305 308 308 306 306 307 308 309 309 309 310 308 308 308 309 309 309 309 308 307 308 311 310 309 311 314 313 313 313 313 312 313 313 314 314 314 314 314 315 315 315 315 315 315 315 315 316 317 318 319 320 320 321 322 322 321 319 318 316 315 316 317 318 320 319 317
300 301 300 302 303 303 303 304 304 305 305 305 306 305 305 304 304 304 303 303 304 306 306 308 307 305 304 305 306 307 308 309 309 308 307 308 309 310 309 309 308 308 308 308 309 308 309 312 313 313 314 314 313 313 313 313 313 314 314 313 314 315 315 315 315 316 316 316 316 317 319 320 320 319 322 322 320 318 319 318 317 316 317 318 319 320 319 318
297 299 301 303 303 302 303 303 304 305 305 305 305 305 305 304 303 304 305 303 303 304 305 306 305 305 305 306 307 307 307 308 307 306 306 308 309 311 312 310 308 307 307 307 308 308 309 310 311 312 314 315 315 314 313 313 314 315 314 313 313 314 314 315 315 316 316 316 318 319 318 320 322 322 321 321 319 318 318 317 316 316 316 317 317 316 316 316
Wind_Speed
38 37 37 36 36 37 34 33 33 33 32 31 29 27 27 28 28 26 25 24 23 21 20 18 15 14 14 14 14 14 13 14 15 17 19 19 22 25 22 17 15 14 13 9 5 5 5 5 5 3 3 2 1 0 0 1 2 2 3 3 2 3 4 5 6 6 3 3 3 1 4 6 3 3 1 1 2 2 1 3 3 3 2 2 3 1 15 26
41 39 39 37 36 37 36 34 33 33 32 32 31 30 28 28 28 27 26 25 23 22 21 20 17 14 13 13 14 13 13 17 18 21 25 23 23 27 25 22 16 11 11 9 6 4 3 4 4 4 3 2 0 0 1 1 2 2 3 2 4 5 4 5 7 6 3 3 3 3 2 4 5 3 2 2 3 2 4 5 3 4 5 1 2 11 21 25
43 42 41 40 37 37 38 36 34 34 33 33 33 31 30 28 28 27 26 25 24 23 22 21 19 15 13 12 11 12 12 16 16 21 29 27 26 28 27 27 23 15 12 9 6 3 3 6 6 6 3 1 1 1 2 1 2 2 3 2 6 5 4 5 5 6 6 3 4 6 1 3 5 4 3 4 4 3 7 7 3 6 8 3 5 14 21 22
43 43 42 41 39 37 38 38 35 34 33 33 33 32 31 29 28 27 26 26 24 23 22 21 20 17 14 11 11 11 8 11 12 17 28 31 31 31 29 30 27 21 15 11 8 5 5 5 5 5 3 2 1 2 3 3 3 1 4 5 6 4 3 6 7 7 6 3 3 4 1 4 5 3 3 6 4 5 8 9 11 12 10 9 7 13 19 20
43 44 43 42 40 38 38 39 37 35 34 33 33 33 32 30 28 28 27 26 25 24 22 21 20 17 15 12 11 10 4 5 6 10 24 32 32 33 32 31 28 24 20 16 11 6 5 2 4 3 2 2 0 2 3 4 4 2 4 6 5 5 4 7 6 7 4 3 2 2 2 5 1 2 4 9 8 7 6 8 11 10 8 11 11 15 17 17
47 47 45 44 41 39 38 38 38 37 35 34 34 34 33 31 29 29 28 27 25 24 22 22 21 18 16 13 11 11 9 5 2 3 13 27 33 34 33 33 30 25 23 19 11 5 3 2 4 3 1 2 4 4 4 4 4 3 4 4 5 6 5 5 3 5 4 3 3 3 3 2 1 4 4 9 11 6 1 4 8 6 8 11 13 16 15 14
50 51 48 46 43 41 39 38 38 39 37 35 35 35 33 32 30 29 29 27 26 25 23 22 21 18 16 12 12 11 9 10 3 8 5 10 27 34 33 34 31 27 24 20 12 7 4 4 5 4 4 3 5 5 4 4 4 5 5 4 6 7 7 6 4 4 4 5 5 2 1 1 3 5 1 5 12 8 3 4 3 7 12 13 11 13 15 17
49 53 50 47 46 43 40 39 39 39 38 36 36 35 34 32 31 31 29 28 26 25 24 22 21 19 16 13 9 7 9 16 17 6 9 7 11 26 31 29 29 27 24 22 17 11 6 6 7 5 4 5 5 5 4 3 3 5 6 5 4 5 7 7 5 5 5 6 4 1 4 7 8 2 1 7 11 11 5 3 4 7 10 11 11 13 13 15
49 52 52 48 48 45 43 41 39 40 39 37 37 36 35 32 31 31 30 29 27 26 24 23 22 18 17 13 6 9 12 16 25 23 13 10 1 17 25 23 26 27 22 22 21 17 9 7 7 5 5 5 5 6 5 5 5 6 8 6 4 5 7 6 5 7 5 4 3 2 8 11 6 2 4 10 12 9 5 5 5 7 7 9 10 12 13 12
50 51 54 51 49 47 44 42 41 41 39 37 37 37 36 32 31 31 30 30 28 26 25 23 23 19 18 12 7 12 8 5 20 28 21 12 2 12 22 21 23 25 20 18 20 18 10 8 8 4 3 4 6 5 5 7 4 5 9 9 7 7 6 4 5 6 3 3 5 6 10 9 2 3 6 9 8 4 7 6 5 7 8 10 9 10 13 13
52 51 54 55 52 48 46 45 43 41 39 37 36 36 36 33 31 31 30 30 28 27 25 24 23 20 17 11 8 10 2 1 12 17 21 20 8 10 20 24 24 23 19 13 17 20 14 11 10 5 1 3 5 2 4 6 2 3 6 6 8 7 7 5 5 5 2 3 6 7 9 7 2 3 8 6 5 5 8 7 6 8 8 9 9 9 10 12
52 51 55 57 53 50 47 46 44 41 40 38 36 36 36 34 31 31 30 29 29 27 25 24 23 22 16 8 12 13 4 1 4 6 14 19 15 9 12 23 29 28 23 13 15 21 18 14 11 6 4 3 4 2 4 5 3 2 4 3 7 6 8 8 6 6 5 3 5 6 6 7 4 9 9 4 2 4 6 7 7 8 8 7 8 7 7 12
52 51 55 58 55 52 49 46 45 42 40 38 36 36 36 34 32 31 30 29 29 27 26 23 22 22 15 5 13 21 14 7 3 2 8 14 16 12 11 20 27 29 28 21 18 20 20 17 12 7 4 3 3 2 0 1 3 2 3 2 5 7 8 8 6 4 5 5 6 6 6 7 8 12 9 5 5 5 5 7 7 7 7 7 7 7 8 11
54 52 52 56 56 54 51 47 45 42 41 39 36 36 35 34 32 31 30 28 28 27 25 23 22 20 12 6 11 16 19 20 14 4 4 10 14 13 14 19 23 25 25 22 16 16 21 17 8 3 1 3 2 1 4 4 1 2 2 2 4 6 5 4 7 7 6 5 6 8 7 7 8 10 8 6 6 8 7 8 8 7 7 7 7 8 9 11
54 53 50 53 55 55 51 47 46 43 41 40 37 36 35 33 32 31 29 28 27 27 25 21 23 16 3 8 13 13 16 19 22 18 10 9 11 10 13 18 21 22 21 18 12 12 20 16 6 2 2 1 1 1 2 3 2 1 4 5 5 6 4 2 4 10 11 5 5 8 6 6 10 9 7 7 6 8 9 9 8 8 8 8 7 8 9 10
53 52 50 54 55 54 51 47 46 43 41 40 37 35 35 33 32 31 29 27 25 26 24 17 19 13 1 4 8 10 12 12 18 26 21 15 12 8 12 17 16 16 16 15 12 11 15 12 4 3 2 1 3 4 2 1 3 3 7 8 5 7 6 3 3 7 12 5 4 8 6 2 7 8 5 4 7 9 9 10 9 9 9 8 7 8 8 9
53 52 52 55 56 55 51 47 47 45 41 39 37 35 34 31 31 30 27 26 25 25 20 12 16 11 3 4 4 5 11 14 16 22 26 25 18 11 12 12 9 12 11 8 10 10 9 7 3 1 3 3 4 5 4 7 9 6 6 7 5 5 5 3 2 4 7 6 5 8 8 5 7 9 5 2 6 8 9 11 10 8 7 7 7 7 8 9
51 54 56 56 56 56 52 48 47 44 41 39 36 34 33 31 30 27 23 20 16 14 10 8 14 8 6 12 11 5 8 16 19 20 24 24 21 18 15 9 6 12 11 4 6 7 4 4 3 3 4 4 5 7 11 15 12 8 6 7 6 4 4 4 3 3 6 7 7 8 8 9 11 14 10 5 6 7 10 11 8 7 7 7 7 7 8 9
51 54 57 57 56 56 53 50 48 44 42 38 35 32 28 24 19 16 17 19 11 7 6 8 12 7 5 11 12 6 4 14 20 18 20 19 17 18 13 8 7 11 8 3 6 8 6 3 4 6 8 11 13 16 17 10 5 9 9 8 7 5 5 4 3 5 8 6 8 10 10 9 13 17 14 10 7 8 10 9 6 7 7 7 7 8 9 10
51 55 57 56 56 55 51 50 49 47 43 38 34 27 16 12 7 5 10 13 11 9 5 9 15 9 0 2 5 9 7 10 12 10 18 21 17 15 8 5 6 7 7 7 7 8 8 6 7 10 14 19 19 18 15 6 2 4 5 6 7 6 7 5 4 6 6 6 9 11 12 12 14 17 16 12 8 8 9 8 8 8 8 8 9 10 10 12
51 55 56 55 56 55 51 51 49 47 44 41 37 19 7 12 9 6 9 6 12 10 1 5 15 11 1 3 4 11 8 5 6 9 20 23 19 14 6 5 6 5 8 11 7 6 9 9 11 18 21 21 18 16 14 11 8 4 4 4 5 7 7 5 6 6 4 4 7 7 10 14 12 14 15 11 10 10 11 11 11 11 10 8 9 11 11 12
49 52 56 55 57 57 54 52 50 49 45 40 34 13 10 20 10 8 13 4 8 9 2 1 9 8 1 3 7 10 6 4 7 9 18 19 15 12 7 7 7 5 8 10 6 6 8 9 16 24 21 16 15 15 15 15 15 8 3 3 4 4 3 3 4 4 3 4 5 4 8 12 10 13 16 13 12 11 11 13 13 13 13 10 10 11 12 11
48 51 57 57 60 59 54 53 50 48 43 37 32 17 16 25 14 14 16 3 2 7 1 1 5 9 5 3 8 9 5 7 7 7 16 16 8 9 9 7 9 8 8 9 8 9 8 11 22 21 12 12 14 15 16 14 12 10 6 5 4 2 3 3 4 3 4 4 3 3 7 9 8 9 13 14 12 9 9 12 13 12 13 13 13 12 12 13
49 52 56 58 62 56 52 55 47 44 44 40 35 22 18 24 20 21 13 3 2 5 4 2 1 6 6 2 7 9 4 6 6 9 17 14 6 7 8 7 10 10 8 12 12 11 10 12 16 13 10 16 18 15 15 12 9 11 10 10 6 2 4 4 3 2 3 3 2 2 7 11 11 10 13 11 9 10 11 11 12 12 12 12 12 12 12 13
51 53 54 58 59 55 55 50 39 41 43 34 31 25 22 24 24 25 12 4 1 0 2 5 2 5 8 4 6 6 1 3 5 10 17 16 11 8 7 6 8 10 10 13 12 9 11 7 9 13 15 18 17 12 13 12 10 10 12 14 11 6 3 2 1 2 1 5 3 3 5 12 8 10 14 10 9 12 11 13 16 14 13 13 12 13 13 13
52 52 53 57 58 58 49 31 32 42 32 22 29 29 26 27 28 25 11 4 2 1 5 8 3 8 12 6 6 5 0 4 3 6 16 21 16 7 7 6 3 9 12 10 7 4 7 5 9 16 18 15 13 10 13 13 9 10 12 14 13 9 6 4 1 1 3 6 4 3 7 10 5 6 9 8 12 15 11 13 17 14 13 13 12 13 13 13
52 52 55 59 58 57 35 18 34 38 17 20 35 33 29 31 29 17 5 0 4 3 6 6 4 10 11 8 11 9 4 4 2 2 8 15 12 2 5 9 5 7 8 5 4 4 7 9 8 14 16 13 11 12 15 15 11 10 7 10 12 13 11 7 4 4 3 3 4 1 2 7 9 7 6 8 11 14 12 13 14 13 14 14 14 15 15 15
52 54 58 58 60 61 38 27 38 28 17 31 40 35 32 34 25 9 3 4 3 4 6 5 4 6 5 7 14 9 3 3 5 2 1 3 5 3 4 11 10 11 10 8 7 5 10 15 14 15 15 10 13 15 13 15 12 6 8 12 12 12 8 5 5 6 2 2 5 4 2 5 13 7 6 8 10 15 16 15 14 14 15 15 15 16 17 17
52 56 58 59 62 59 42 37 35 24 28 41 39 36 36 31 17 6 2 4 1 3 4 5 5 4 5 5 11 9 1 2 3 0 4 2 1 3 3 6 4 8 11 10 10 6 5 14 19 16 11 10 15 12 11 15 11 4 10 10 7 8 7 6 6 5 2 2 10 8 4 5 14 9 6 7 11 17 16 11 12 14 15 16 16 17 17 15
54 56 59 62 58 45 34 32 32 29 36 43 42 39 34 23 9 3 6 4 2 2 2 6 8 7 10 7 7 11 5 2 2 2 2 2 2 2 0 2 4 1 4 4 9 9 3 4 10 10 9 9 8 6 11 16 10 7 8 6 5 6 6 6 4 4 5 8 11 10 10 8 12 13 8 9 12 13 11 8 8 10 14 15 15 16 16 13
56 57 60 61 51 42 30 21 30 39 42 47 45 34 21 11 4 6 8 2 3 4 2 6 9 10 15 12 7 10 8 2 5 6 3 2 2 1 0 2 3 2 0 1 6 10 6 3 3 6 10 7 5 5 8 9 10 9 6 5 5 3 3 3 2 4 8 8 11 14 14 13 12 15 7 10 13 10 10 11 8 11 14 15 14 15 14 12
57 58 63 58 50 44 29 23 40 50 49 52 41 20 9 6 4 6 5 3 3 6 6 9 11 13 18 17 11 10 10 4 4 8 6 5 4 3 5 5 3 4 5 3 5 7 8 8 5 5 10 10 8 7 3 2 7 7 5 8 8 4 2 5 5 6 8 8 11 15 14 12 14 19 11 8 10 7 8 8 8 12 14 13 14 14 13 11
57 60 61 55 50 41 29 35 50 51 53 49 27 8 6 7 7 9 7 4 3 4 8 10 11 13 16 15 10 10 9 4 3 5 5 5 5 5 6 4 2 2 3 4 6 5 5 9 9 6 6 10 12 10 6 4 7 9 7 8 9 7 5 7 7 6 7 8 7 7 11 8 9 16 15 15 15 11 10 8 6 9 11 12 13 13 13 11
60 61 54 48 47 39 35 45 52 53 51 35 14 8 9 6 8 12 10 5 2 2 7 11 12 12 13 12 9 10 8 3 5 6 5 5 4 4 5 4 3 1 2 3 5 6 8 8 9 10 6 11 15 12 11 10 9 11 10 8 8 7 6 7 6 7 7 3 2 4 8 8 9 8 3 7 10 9 12 11 7 8 10 11 11 11 12 10
62 58 46 39 38 39 44 50 53 56 41 17 9 11 9 7 8 12 10 4 2 3 7 12 13 11 11 8 8 10 5 2 7 6 5 7 5 6 6 5 7 4 2 4 2 4 8 6 6 13 11 14 17 13 11 11 7 7 7 7 9 9 8 6 3 4 4 2 2 5 4 3 8 11 5 5 4 2 5 7 7 9 9 8 9 10 10 9
55 47 37 31 32 41 52 53 53 52 30 11 11 9 8 8 5 7 8 5 5 8 12 12 10 9 8 4 6 10 3 2 8 6 3 7 7 7 7 5 8 9 6 5 0 1 5 4 2 10 12 15 17 14 13 11 6 3 5 9 7 5 7 7 4 1 2 5 5 5 6 3 6 15 14 14 12 4 2 5 7 9 9 8 9 9 9 9
39 33 25 23 31 44 54 56 52 41 21 9 10 8 5 4 2 4 7 7 9 12 13 9 7 8 8 4 6 11 6 3 7 6 3 5 5 6 8 5 7 13 12 8 3 0 3 3 3 5 12 14 14 13 14 14 10 6 7 11 5 2 2 3 5 3 4 8 6 6 11 8 6 11 7 9 16 13 8 7 9 10 10 12 11 10 12 12
29 25 17 20 35 44 52 57 47 26 11 9 11 7 3 2 1 4 8 11 12 12 10 6 5 6 8 7 7 10 10 6 7 6 4 4 4 7 11 5 6 14 15 11 6 2 2 4 4 3 8 8 7 9 10 11 10 5 4 8 6 2 5 5 4 4 5 7 7 8 12 9 9 12 7 5 12 12 11 11 10 11 12 13 13 14 15 14
25 17 7 20 39 44 51 52 33 14 8 10 12 8 3 2 1 3 10 14 11 10 9 5 4 5 6 7 8 10 11 8 8 7 5 4 3 6 11 7 5 10 12 12 8 2 2 5 6 2 2 2 4 6 7 9 8 1 3 2 4 3 7 6 4 3 3 6 7 8 9 7 10 15 16 14 11 9 10 12 12 13 14 13 13 13 14 14
15 7 4 24 42 44 48 38 17 9 8 8 10 5 2 3 2 3 8 11 7 4 5 6 6 7 7 7 8 8 8 8 9 7 5 6 4 4 8 8 6 6 9 11 8 2 3 5 7 3 1 1 2 5 8 12 11 7 3 3 5 4 2 1 4 5 5 7 7 8 10 8 7 10 14 16 12 8 10 11 11 12 13 13 12 12 13 13
8 5 2 24 43 43 36 20 6 7 7 6 7 3 2 4 4 4 4 6 4 1 2 7 8 7 8 9 9 8 7 7 8 6 5 7 6 4 5 8 8 8 8 8 8 6 3 4 8 7 2 4 6 4 3 5 5 5 6 6 8 9 6 4 6 7 5 6 5 6 9 8 5 6 8 11 11 9 11 12 11 11 13 15 15 16 16 14
7 5 3 24 47 43 23 7 4 6 4 6 6 3 3 5 6 6 3 5 4 2 2 3 5 6 8 8 10 11 8 7 9 8 7 8 9 5 4 5 8 10 9 6 7 7 3 2 6 9 7 8 7 2 0 2 4 1 3 4 6 9 10 9 10 7 6 7 5 3 7 8 5 4 6 9 9 9 12 13 12 12 14 15 16 15 12 9
4 5 7 24 45 37 15 5 5 4 1 4 5 3 2 4 5 7 5 2 3 3 2 2 1 3 4 4 8 12 10 7 9 9 7 7 7 4 4 7 10 10 9 5 4 3 2 2 4 6 6 7 4 2 1 2 4 2 4 4 6 8 10 11 8 4 4 9 8 6 10 11 6 4 5 5 6 6 8 9 11 10 9 11 13 10 6 5
4 4 6 12 25 23 11 5 7 8 4 4 6 3 1 2 5 7 8 4 3 3 4 3 2 2 3 3 6 12 10 5 7 8 4 5 5 1 4 10 12 10 7 5 6 5 4 4 5 6 6 7 6 5 4 1 3 4 6 8 9 10 12 9 3 2 4 8 10 10 11 10 6 5 4 4 6 7 7 6 7 8 8 10 9 6 5 6
6 4 3 2 4 7 6 4 7 10 9 8 8 6 3 3 2 3 7 6 2 3 4 3 3 3 4 4 5 8 7 3 5 7 3 3 4 1 2 10 12 9 6 5 8 6 4 4 6 8 8 10 10 9 6 3 4 4 5 11 15 15 16 11 3 6 9 9 11 10 10 11 9 7 7 6 6 7 8 7 6 7 9 10 8 6 6 6
6 3 3 2 5 3 1 1 4 8 9 11 8 5 6 5 2 2 4 5 3 4 4 1 3 4 5 6 7 7 5 2 2 6 5 4 3 0 2 8 9 7 7 7 8 6 2 3 7 9 10 11 10 7 3 2 4 4 5 9 12 14 18 14 8 8 9 8 10 10 9 14 16 14 12 9 6 6 7 7 7 7 9 9 8 7 7 6
4 2 3 3 1 3 2 1 5 6 8 12 8 5 8 7 3 2 2 1 3 4 3 2 3 4 7 11 8 6 6 3 3 7 8 5 2 1 3 4 4 5 7 6 6 5 2 4 9 11 13 13 10 5 1 2 4 7 7 6 6 6 8 10 9 7 6 7 11 10 11 17 21 20 19 12 6 6 8 8 8 8 8 8 7 7 8 8
3 2 1 1 1 4 3 5 8 7 8 9 5 6 11 9 7 5 2 1 2 3 3 3 4 6 10 14 9 7 7 4 2 4 7 5 3 3 3 2 2 4 5 4 5 4 2 4 7 9 13 15 12 5 2 2 2 5 6 6 7 5 5 6 8 6 5 7 9 9 12 19 21 22 20 11 6 7 9 8 6 6 6 6 6 7 9 10
3 3 1 2 2 4 5 7 10 10 9 7 3 5 11 13 11 5 1 3 3 2 1 5 6 6 9 12 9 9 11 8 4 4 4 6 6 4 3 1 0 1 3 4 3 1 1 4 5 7 10 13 14 9 6 6 6 7 8 9 8 7 7 9 9 10 10 9 10 14 20 23 20 20 18 9 8 8 7 4 5 5 6 6 6 8 10 10
4 3 2 2 3 5 7 9 10 9 6 5 4 3 6 12 11 4 1 3 6 5 3 7 9 6 7 8 6 11 15 12 10 9 8 9 8 4 3 3 2 2 2 3 2 0 1 4 4 5 7 11 12 10 11 11 11 12 13 11 9 8 9 10 11 12 12 10 13 17 18 19 21 21 15 6 6 7 6 6 7 7 7 7 7 9 10 9
4 3 5 6 4 4 6 7 8 8 4 3 5 5 6 9 9 5 2 1 3 5 6 10 12 7 4 3 3 9 11 7 9 13 14 13 9 6 4 4 6 5 3 3 3 2 2 2 1 3 6 9 9 11 13 12 11 13 14 13 12 11 12 12 11 11 11 12 14 15 13 15 18 16 11 5 5 7 8 9 9 8 7 8 8 9 9 9
4 3 4 6 4 3 4 6 6 7 4 2 4 5 5 6 5 5 4 1 2 1 3 11 14 8 5 5 5 7 7 5 6 9 9 7 6 6 4 4 8 8 5 4 3 2 3 1 1 2 5 5 6 10 10 7 7 9 11 15 17 15 13 12 10 11 14 13 11 12 12 13 11 6 10 11 7 6 7 7 7 9 8 8 9 9 10 10
Wind_Direction
230 229 229 231 233 232 229 230 232 234 232 231 231 229 230 232 231 231 229 227 228 232 235 236 235 236 238 240 242 243 241 240 242 234 228 228 229 234 236 238 242 238 239 260 282 268 256 243 226 182 144 131 80 225 347 22 105 93 107 140 208 194 201 187 187 201 185 255 253 232 160 160 251 279 262 355 52 85 186 263 289 298 275 234 279 253 158 161
230 229 227 228 230 231 230 228 230 233 232 231 230 230 230 230 230 229 228 227 226 227 231 233 232 234 235 236 239 239 243 248 246 239 233 231 235 237 234 234 232 226 226 235 265 276 249 248 206 138 106 133 261 6 157 278 146 139 128 163 222 198 212 198 186 202 200 244 263 291 211 192 221 193 150 221 248 141 179 250 311 294 269 322 128 152 156 160
230 229 227 226 227 229 230 228 226 229 231 231 230 230 229 228 228 227 227 225 224 225 226 229 230 231 232 231 235 234 245 258 252 243 238 232 233 236 234 234 230 222 218 221 242 258 278 273 207 146 98 164 222 139 150 206 187 176 141 186 238 205 226 235 207 213 216 224 288 300 261 217 235 181 154 193 214 194 202 222 206 240 236 175 144 153 157 161
231 229 227 226 226 226 228 227 225 226 228 230 230 229 227 226 226 225 225 223 222 222 223 226 226 227 228 227 231 229 245 269 256 244 243 236 232 233 232 233 230 223 219 221 228 239 299 292 200 152 109 200 287 85 162 210 194 169 154 196 232 185 219 241 214 225 228 199 249 294 358 274 253 180 179 160 164 238 234 221 202 217 205 167 165 165 164 165
232 230 227 226 224 224 225 225 225 224 225 228 229 228 226 225 224 223 223 222 221 221 221 223 224 223 222 222 226 218 211 270 260 242 243 238 231 230 229 230 228 221 217 220 224 235 278 265 160 124 90 183 240 98 214 223 156 150 203 214 210 155 214 242 212 228 222 159 211 282 289 273 231 180 198 165 188 233 237 224 212 217 184 164 171 169 169 172
231 230 227 227 225 223 223 223 224 223 223 226 227 227 225 223 223 222 222 221 220 219 219 220 221 219 217 220 221 203 186 227 354 44 240 233 229 225 223 225 224 217 214 213 208 199 224 155 146 158 129 180 196 187 227 224 148 196 237 232 212 180 217 236 198 210 175 148 211 211 243 282 22 272 221 180 213 229 276 248 217 199 161 160 164 165 173 179
229 230 228 227 226 223 222 221 222 222 222 224 225 225 224 222 222 221 220 220 219 218 217 217 219 216 214 214 213 206 202 228 250 47 22 239 230 225 219 218 214 209 206 198 186 173 161 155 175 166 151 198 211 207 226 210 172 205 227 245 226 207 220 224 211 202 171 198 222 198 316 271 223 264 251 203 232 236 288 316 204 161 147 152 160 172 183 184
229 230 227 225 225 223 222 220 220 221 221 222 224 224 222 221 221 220 219 218 218 217 215 215 215 213 211 205 204 221 231 232 227 241 356 352 237 223 216 209 204 200 196 191 182 172 162 171 185 157 166 217 207 197 197 186 202 207 213 239 226 210 228 229 231 238 231 232 234 280 290 250 215 198 300 240 245 241 233 55 92 132 137 153 173 185 191 191
229 230 226 223 223 221 221 219 218 219 219 220 222 222 221 220 219 219 218 216 216 216 215 214 214 212 210 206 204 229 237 238 231 238 281 338 323 213 210 201 198 194 189 196 188 177 172 178 192 170 178 206 190 191 183 191 226 207 204 227 217 220 232 217 223 235 234 232 206 222 263 258 223 155 266 244 243 238 174 117 120 135 150 173 183 189 193 196
228 228 227 223 221 220 219 218 216 217 217 217 220 221 220 219 218 218 216 215 215 215 215 213 212 210 207 203 208 226 238 249 232 238 256 284 334 186 199 198 199 193 187 194 190 182 174 173 182 151 148 184 181 191 184 193 217 189 201 233 230 233 242 203 214 225 201 219 193 196 251 264 194 167 248 247 240 202 139 149 157 156 181 191 191 196 198 202
228 227 227 222 219 219 217 216 215 215 216 215 217 219 219 218 217 217 215 213 213 215 214 213 212 209 203 200 215 222 220 221 230 235 242 251 241 181 196 200 198 196 192 191 195 194 183 173 164 131 184 186 169 212 228 204 196 174 197 250 256 254 262 237 242 236 175 247 200 183 258 279 91 206 235 241 237 171 157 177 180 186 201 198 199 201 201 212
228 226 225 221 217 217 216 214 213 213 213 214 215 216 217 216 215 215 214 210 211 214 214 213 212 208 204 209 228 221 197 223 234 215 221 232 232 217 211 204 200 201 198 194 205 202 190 181 166 168 219 168 148 227 250 206 161 154 170 249 279 280 262 232 238 233 177 228 186 152 278 276 212 231 227 207 196 158 172 190 196 204 208 203 203 203 208 218
228 223 222 222 218 215 215 212 212 212 211 211 212 214 214 213 213 213 213 210 209 212 212 211 208 206 204 220 239 227 224 242 261 163 200 214 219 216 211 208 205 204 203 202 210 206 197 194 182 188 203 136 170 221 257 148 141 166 168 215 273 282 266 216 200 189 168 210 164 147 266 252 226 238 222 178 152 142 180 209 213 216 215 211 205 204 214 215
228 222 219 222 219 214 213 210 210 210 209 210 209 211 211 210 212 211 211 209 206 208 210 209 204 201 202 236 248 233 229 241 250 253 196 198 202 198 199 204 203 203 204 205 211 207 200 198 189 204 221 137 205 298 29 15 71 170 197 215 224 243 269 203 180 161 176 227 153 162 246 249 249 250 219 195 165 163 202 221 217 221 221 217 212 211 218 215
227 223 218 219 217 214 211 209 208 207 206 207 207 208 208 208 210 210 210 208 204 206 205 202 198 191 202 252 251 244 228 235 240 239 236 207 193 185 186 193 197 200 201 203 212 209 196 193 187 198 233 179 146 100 47 350 329 160 209 226 208 219 268 313 201 175 189 233 147 173 233 255 260 255 217 205 183 184 218 228 218 222 225 219 220 218 224 226
226 222 217 217 216 212 208 206 206 206 205 204 205 206 205 206 208 208 207 204 204 202 198 193 187 180 201 236 233 240 223 217 225 228 233 229 217 199 173 175 184 189 194 198 200 193 181 181 193 165 152 155 156 146 113 310 257 214 212 224 211 211 238 285 278 204 196 201 173 206 227 235 260 260 249 220 196 200 223 234 225 222 227 222 223 225 227 235
225 218 214 215 215 210 206 205 204 203 203 201 201 201 202 204 205 207 206 202 202 196 189 176 163 166 266 246 215 213 206 202 204 211 221 227 226 207 168 155 158 161 159 164 171 168 160 170 205 154 132 162 164 141 166 217 223 215 212 230 222 202 213 203 265 247 202 206 213 220 227 221 251 260 269 263 196 201 228 239 235 228 234 233 231 236 236 238
222 217 213 214 214 209 205 203 201 200 200 197 197 196 197 199 200 205 199 184 184 183 177 146 143 157 248 238 226 198 189 192 187 193 206 215 217 203 178 155 144 145 138 126 152 154 153 171 188 184 171 177 174 172 204 222 218 203 200 225 232 219 212 184 209 219 184 217 226 214 225 226 248 258 250 233 181 186 228 239 244 240 236 238 233 236 238 239
219 217 214 213 212 206 202 199 197 197 195 192 190 187 187 189 193 198 172 152 150 170 186 162 160 180 230 228 215 181 172 181 182 186 185 187 192 189 176 155 147 148 151 169 173 168 163 153 179 192 194 197 197 199 210 218 194 195 207 221 224 226 235 200 223 224 176 202 232 220 230 221 233 250 246 233 195 189 227 239 248 244 235 235 232 234 235 235
220 217 212 211 208 203 199 195 193 193 190 184 175 167 167 168 171 196 157 156 185 193 178 175 187 200 346 304 194 159 157 170 173 173 173 174 165 160 166 149 156 171 171 173 173 171 169 177 197 200 204 205 203 206 214 218 124 175 198 219 213 212 239 211 222 258 183 196 234 221 233 229 225 244 245 235 215 208 228 235 238 238 237 233 229 234 233 235
218 215 209 209 205 199 196 192 190 190 187 179 169 159 167 171 170 187 162 171 206 195 124 185 197 209 271 19 146 146 135 158 181 170 173 174 157 154 173 167 180 202 184 177 158 154 181 196 204 207 209 206 201 204 211 223 228 205 163 200 206 207 238 218 207 243 182 191 241 223 241 243 230 244 251 240 224 221 221 225 231 233 235 231 229 237 236 239
216 214 209 207 202 197 194 190 188 187 183 176 172 178 197 183 180 163 155 155 207 192 22 162 197 218 246 88 150 151 119 156 194 182 174 170 163 176 185 175 194 199 186 183 155 164 197 208 209 210 209 201 201 202 205 219 227 225 186 183 214 209 231 258 233 230 173 196 251 244 253 255 239 242 250 244 233 228 221 222 226 228 234 232 227 235 239 244
214 212 208 206 199 195 192 188 185 182 178 174 178 191 188 184 179 150 149 99 176 186 206 95 197 209 200 125 167 168 146 167 182 186 181 174 172 189 182 178 197 197 194 195 185 188 196 209 214 211 198 196 207 203 202 215 224 225 213 204 238 202 164 257 269 234 207 206 236 273 278 267 248 242 250 249 240 236 231 228 228 227 231 233 227 229 235 238
211 207 205 203 197 193 188 183 180 177 178 179 185 187 174 176 169 149 140 51 143 184 210 205 265 210 194 136 170 174 173 183 178 180 182 177 160 177 189 187 193 203 204 203 207 210 209 211 210 198 182 201 210 202 198 209 221 224 220 217 227 167 173 240 246 207 262 258 229 307 299 274 248 238 247 248 237 234 229 229 235 234 232 238 237 234 235 235
205 204 203 199 195 190 181 176 174 176 178 181 185 179 165 168 164 152 133 36 185 144 209 193 319 224 189 147 163 165 199 248 208 180 175 179 171 166 194 195 195 209 201 200 212 225 229 209 168 183 198 206 208 204 200 202 216 226 219 215 208 177 187 269 19 94 308 274 245 152 263 274 251 225 236 233 229 233 223 221 230 231 229 233 238 238 235 237
201 204 201 197 193 182 172 171 176 175 173 180 183 171 161 162 162 156 127 38 239 194 175 174 165 194 186 170 144 112 282 258 249 181 172 182 184 171 199 191 198 216 193 193 214 220 230 206 163 191 206 205 202 210 206 196 212 231 214 204 201 195 210 234 289 190 195 249 274 167 226 269 274 228 230 222 232 237 223 221 228 228 230 229 232 237 233 235
201 201 198 196 188 173 166 170 173 171 170 182 178 164 156 161 161 155 121 29 222 157 153 169 173 182 180 168 145 133 207 200 120 195 181 188 190 150 212 191 182 212 182 171 222 193 192 201 193 198 204 203 201 211 203 186 206 235 191 168 189 207 215 213 226 243 228 283 305 241 225 278 275 253 208 200 235 248 234 226 227 225 229 231 231 235 231 230
200 197 195 192 181 172 170 166 165 172 181 173 168 159 157 160 155 135 123 198 193 122 140 169 166 157 148 152 156 162 250 148 142 214 93 178 184 98 212 208 201 204 183 174 213 199 175 193 202 200 200 203 208 213 195 181 209 229 140 152 187 201 197 176 202 237 269 359 267 249 70 282 273 258 170 187 228 249 243 227 222 222 223 230 234 235 233 229
197 193 192 184 174 172 172 166 167 173 168 162 162 160 154 148 137 96 170 202 123 108 140 150 151 142 134 154 173 184 256 101 167 202 78 102 130 92 191 215 217 209 196 191 211 219 184 197 202 199 199 207 212 208 174 181 209 185 141 150 162 167 167 170 188 201 151 234 242 231 160 239 273 264 182 182 220 238 247 231 217 219 218 224 231 235 236 231
191 189 188 176 168 168 163 163 171 164 155 157 159 155 143 132 120 124 196 198 114 144 140 152 171 163 149 150 183 190 179 109 123 93 106 129 59 27 123 103 62 141 206 212 218 226 262 214 201 200 207 205 201 184 177 190 186 142 140 129 121 152 180 183 161 160 193 232 235 217 185 196 265 267 213 201 221 226 242 239 210 212 220 225 230 236 238 230
188 186 181 169 165 166 158 158 166 159 155 154 150 144 133 124 141 185 190 163 102 146 136 157 163 148 156 166 179 186 182 159 141 144 159 134 105 68 76 132 104 113 257 337 220 226 243 235 178 194 204 178 131 166 197 190 158 146 146 135 146 165 191 185 160 194 214 232 222 209 193 185 238 261 214 200 222 212 228 236 202 202 219 224 227 235 239 230
186 183 175 167 165 167 165 160 158 156 155 151 143 136 136 136 169 196 180 122 149 174 163 167 169 161 170 176 175 176 176 164 154 162 168 163 164 180 190 191 166 193 227 204 197 214 225 220 191 179 189 169 158 177 189 130 151 171 158 152 177 192 189 197 198 211 216 229 223 203 188 187 234 256 246 226 233 219 236 245 208 206 215 222 228 234 240 234
181 176 170 166 165 166 164 156 153 152 150 148 140 135 161 160 183 195 178 165 200 182 155 162 171 168 170 174 175 173 173 165 145 157 166 164 172 192 203 202 140 177 217 190 199 201 210 220 203 185 174 169 178 180 173 162 169 188 181 170 190 192 203 209 203 219 217 233 248 185 178 197 242 259 256 245 244 242 243 242 223 221 218 221 228 231 239 237
173 168 164 162 164 163 157 152 151 150 146 143 140 153 170 182 185 183 184 192 218 140 139 152 156 159 169 178 175 164 167 177 159 155 158 160 172 196 199 201 179 123 76 163 208 206 214 228 198 191 178 168 186 192 182 176 178 194 193 191 202 196 218 224 207 223 221 232 314 156 174 193 211 237 231 198 226 247 243 229 214 228 227 225 233 235 243 245
166 162 158 154 158 158 154 153 152 150 146 142 154 163 179 190 181 183 185 179 174 128 123 143 148 155 172 178 167 166 171 168 159 158 163 172 191 199 192 198 189 176 163 189 212 197 220 255 199 194 189 173 187 196 179 171 184 198 188 201 218 211 220 239 222 212 206 203 201 192 211 206 225 255 265 193 217 316 259 234 218 235 241 239 248 248 250 254
156 155 154 148 152 154 154 155 153 151 148 147 162 175 196 186 170 177 168 141 147 137 127 141 152 160 170 162 165 175 170 103 159 163 180 188 198 189 183 197 185 183 196 201 256 153 204 275 234 194 196 187 190 190 177 174 178 179 189 206 221 211 210 235 255 136 140 222 204 189 237 271 282 273 260 240 246 242 207 240 239 247 255 254 254 254 254 255
146 147 147 145 154 156 154 155 153 151 151 156 172 184 191 186 147 137 138 121 131 138 137 149 163 167 168 156 172 175 154 129 168 174 176 184 196 179 178 203 187 187 197 199 234 279 173 281 319 188 205 206 193 185 187 188 174 155 199 202 180 65 148 211 244 208 187 233 222 197 223 220 234 262 259 233 238 229 203 209 226 236 245 248 248 246 247 246
139 139 139 150 160 158 154 154 153 151 154 164 181 189 159 181 179 130 133 129 134 145 152 159 162 173 175 164 167 166 159 161 173 179 177 174 206 185 177 195 198 193 195 190 211 261 142 256 286 185 212 222 188 181 200 206 189 158 217 202 161 161 210 190 216 217 198 227 231 217 223 210 209 240 260 223 222 219 206 203 214 221 226 237 242 243 246 246
135 137 134 156 162 158 153 153 149 146 161 170 185 194 145 125 137 141 142 137 138 151 162 173 156 158 175 167 156 156 166 174 167 174 188 178 212 196 180 186 201 198 190 179 193 213 137 232 255 192 195 229 181 183 195 207 206 191 343 241 154 195 224 204 209 229 201 221 235 227 224 213 213 234 245 240 223 203 203 209 213 217 220 228 232 237 244 243
134 136 131 159 162 157 149 146 141 151 171 181 183 177 123 120 121 166 144 131 136 155 163 174 160 149 160 159 151 154 168 176 170 177 194 182 194 219 195 190 184 180 178 177 189 184 136 216 240 250 52 126 210 210 199 199 205 203 207 205 184 194 253 245 219 232 229 226 232 237 237 229 223 233 240 246 241 208 201 213 218 220 225 231 232 234 239 239
132 116 113 161 159 151 141 134 140 167 174 186 174 142 140 139 124 149 112 85 104 94 127 154 154 151 154 155 157 162 168 176 178 181 191 192 197 224 216 195 175 153 154 178 196 191 169 200 225 235 232 215 230 244 217 193 187 204 208 204 200 197 203 232 225 218 227 235 224 236 252 249 236 233 231 237 236 210 204 213 216 217 220 227 232 231 234 239
131 113 118 158 154 148 141 136 156 156 166 179 158 106 135 130 120 152 132 61 87 82 56 122 143 151 155 160 164 165 167 174 181 186 199 203 197 207 224 178 157 148 149 177 199 187 150 139 225 239 245 238 230 207 193 103 86 8 247 225 236 218 201 214 225 210 205 232 236 245 261 259 244 230 224 227 225 207 205 209 212 218 219 223 232 237 246 260
119 97 105 152 156 152 147 149 148 138 147 156 123 80 103 112 119 153 158 130 131 130 88 93 148 163 158 161 160 164 168 169 182 189 192 198 200 215 204 149 138 147 155 172 187 175 124 126 218 248 265 273 260 187 249 62 86 306 266 236 259 250 225 223 229 217 199 218 224 235 250 252 251 248 246 257 264 248 230 218 215 226 232 233 240 251 270 273
104 89 80 149 162 159 155 162 162 162 155 120 111 106 61 82 131 157 166 170 153 141 139 146 185 184 160 155 151 163 165 156 190 196 170 175 193 204 170 155 147 155 171 180 171 177 188 169 193 227 245 265 254 217 237 219 154 222 242 233 244 254 256 260 259 249 232 211 210 228 245 251 262 276 270 273 277 271 261 242 226 231 246 249 253 264 266 256
115 88 43 75 124 140 160 183 166 161 153 134 132 138 113 63 62 151 154 154 144 140 142 164 187 133 126 127 121 155 163 122 175 186 139 156 185 27 160 167 163 167 180 177 161 168 198 180 186 212 221 232 236 232 237 217 182 203 225 226 231 234 242 254 250 226 229 210 206 224 242 253 263 276 281 275 267 266 263 258 251 243 248 255 262 270 269 260
117 82 120 82 13 61 95 352 138 148 153 146 142 147 139 123 35 30 113 140 154 130 112 149 175 121 123 140 130 153 172 49 103 168 160 161 172 34 164 165 169 173 161 160 160 158 195 213 204 216 226 234 243 251 251 128 139 182 208 213 218 220 227 235 234 227 230 224 223 224 234 256 263 259 259 257 246 254 259 256 256 250 251 256 256 259 262 255
100 69 131 121 67 121 64 40 129 135 155 156 157 159 143 130 119 69 55 131 168 141 95 82 170 163 156 154 144 153 160 80 69 161 163 157 139 101 127 131 148 155 141 158 171 147 152 226 215 221 237 248 261 272 247 116 147 188 202 199 196 197 219 236 242 248 254 242 237 227 221 244 255 251 249 244 229 256 265 258 256 248 244 251 251 253 256 256
99 67 89 56 125 150 146 155 146 133 141 146 143 151 148 142 148 153 99 66 161 162 98 107 194 205 172 158 146 143 147 117 76 163 156 147 134 115 108 93 122 141 136 161 176 151 173 226 211 217 238 252 262 263 190 182 200 200 203 212 211 197 200 231 248 270 279 259 266 279 259 250 252 254 256 244 204 232 247 252 270 267 256 262 260 258 256 252
102 87 68 12 35 112 109 117 130 130 130 128 111 152 162 159 159 166 104 108 165 221 116 146 185 202 176 164 148 147 163 165 170 194 174 155 155 144 137 138 121 120 127 148 161 141 216 230 214 213 237 251 255 252 233 230 248 247 236 231 230 225 226 238 249 259 261 257 270 280 275 271 267 264 265 246 203 221 237 260 291 278 262 261 249 248 253 253
124 128 138 81 62 93 103 111 126 129 121 117 125 149 168 161 159 161 61 143 172 190 177 159 162 165 169 170 161 170 180 175 165 174 170 160 166 170 165 168 149 108 102 135 146 58 216 230 213 192 236 253 247 243 242 236 241 251 249 243 241 243 247 247 246 250 253 251 252 255 263 272 270 267 273 262 210 224 242 252 257 251 249 252 246 248 255 259
102 125 121 105 86 87 112 123 129 134 134 138 150 158 162 162 162 146 102 327 175 173 181 160 149 141 139 150 194 191 186 174 165 169 166 164 170 168 171 180 158 148 138 135 135 136 185 251 2 162 231 251 236 228 233 234 239 249 252 245 234 231 236 235 229 229 228 232 246 252 252 258 262 267 279 270 206 215 238 244 247 250 245 239 241 252 256 256
86 86 87 94 92 77 111 123 127 141 154 143 145 152 146 152 162 145 130 351 352 37 166 149 143 138 133 157 211 204 188 191 176 160 149 146 145 135 136 146 143 144 150 142 122 140 167 168 1 202 229 255 234 214 212 217 234 242 242 232 224 222 230 237 238 233 222 217 230 242 243 252 262 261 257 251 218 211 245 243 236 243 241 232 233 243 249 251